Meteo Giornale » Osservazioni meteo Gran Bretagna » Belfast-Aldergrove

ore: 23:50 - Osservazioni Meteo Belfast-Aldergrove
Lat. 54° 39' N Lon. 6° 13' W Alt. 81 metri s.l.m.

sereno Europe/London

9 °C

Sereno

Temp. 24 Ore

8 °C

18 °C

Nord

5.5 Km/h

Dew point 6 °C

Umidità 81 %

Visibilità  10 Km

Il sole sorge alle ore 05:34

Il sole tramonta alle ore 21:28

Data e Ora Cielo e Fenomeni T °C DP °C Um. % Pres. hPa Vis. km Vento km/h
Ieri h: 23:50 sereno Sereno 9 6 81 1016 10 N 5.5
Ieri h: 23:20 sereno Sereno 8 5 81 1016 10 N 3.7
Ieri h: 22:50 sereno Sereno 10 6 76 1016 10 N 3.7
Ieri h: 22:20 sereno Sereno 10 6 76 1016 10 N 9.3
Ieri h: 21:50 sereno Sereno 11 6 71 1016 10 N 11.1
Ieri h: 21:20 sereno Sereno 12 6 66 1016 10 N 13
Ieri h: 20:50 sereno Sereno 13 6 62 1016 10 N 16.7
Ieri h: 20:20 nuvoloso Nuvoloso 14 7 62 1016 10 N 18.5
Ieri h: 19:20 sereno Sereno 15 8 62 1015 10 N 18.5
Ieri h: 18:50 sereno Sereno 15 9 67 1015 10 N 20.3
Ieri h: 18:20 poco_nuvoloso Poco Nuvoloso 17 9 59 1015 10 N/NO 18.5
Ieri h: 17:50 sereno Sereno 17 9 59 1015 10 N 18.5
Ieri h: 17:20 sereno Sereno 18 9 55 1015 10 N/NO 18.5
Ieri h: 16:50 poco_nuvoloso Poco Nuvoloso 18 10 59 1014 10 N/NO 18.5
Ieri h: 16:20 poco_nuvoloso Poco Nuvoloso 18 10 59 1014 10 N/NO 18.5
Ieri h: 15:50 sereno Sereno 18 10 59 1014 10 N/NO 18.5
Ieri h: 14:50 poco_nuvoloso Poco Nuvoloso 18 11 63 1014 10 N/NO 18.5
Ieri h: 14:20 molto_nuvoloso Molto Nuvoloso 17 10 63 1014 10 N/NO 16.7
Ieri h: 13:50 molto_nuvoloso Molto Nuvoloso 17 10 63 1014 10 N/NO 14.8
Ieri h: 13:20 molto_nuvoloso Molto Nuvoloso 17 11 67 1014 10 N/NO 14.8
Ieri h: 12:50 coperto Coperto 16 11 72 1013 10 N 16.7
Ieri h: 12:20 coperto Coperto 16 11 72 1013 10 N/NO 16.7
Ieri h: 11:50 molto_nuvoloso Molto Nuvoloso 16 11 72 1013 10 N/NO 14.8
Ieri h: 11:20 molto_nuvoloso Molto Nuvoloso 15 11 76 1013 10 N 14.8
Ieri h: 10:50 coperto Coperto 16 11 72 1013 10 N 13
Ieri h: 10:20 coperto Coperto 15 11 76 1013 10 N 11.1
Ieri h: 09:50 coperto Coperto 14 10 76 1013 10 N 13
Ieri h: 09:20 coperto Coperto 14 10 76 1013 10 N 13
Ieri h: 08:50 nuvoloso Nuvoloso 13 10 81 1012 10 N 14.8
Ieri h: 08:20 molto_nuvoloso Molto Nuvoloso 12 10 87 1012 10 N 7.4
Ieri h: 07:50 coperto Coperto 11 9 87 1012 10 N 7.4
Ieri h: 07:20 coperto Coperto 11 9 87 1012 10 N 5.5
Ieri h: 06:50 molto_nuvoloso Molto Nuvoloso 11 8 81 1012 10 N/NO 7.4
Ieri h: 06:20 nuvoloso Nuvoloso 9 7 87 1012 10 N 5.5
Ieri h: 05:50 sereno Sereno 10 7 81 1011 10 N/NO 9.3
Ieri h: 04:50 sereno Sereno 10 7 81 1011 10 N/NO 9.3
Ieri h: 04:20 poco_nuvoloso Poco Nuvoloso 11 7 76 1011 10 N/NO 11.1
Ieri h: 03:50 nuvoloso Nuvoloso 11 7 76 1011 10 N/NO 13
Ieri h: 03:20 nuvoloso Nuvoloso 11 7 76 1011 10 N/NO 9.3
Ieri h: 02:50 molto_nuvoloso Molto Nuvoloso 11 7 76 1011 10 N 11.1
Ieri h: 02:20 coperto Coperto 12 7 71 1011 10 N/NO 14.8
Ieri h: 01:50 coperto Coperto 12 7 71 1011 10 NO 16.7
Ieri h: 01:20 coperto Coperto 12 7 71 1011 10 N/NO 16.7
Ieri h: 00:50 coperto Coperto 12 7 71 1011 10 N/NO 16.7